| time (UTC) | temp C | wind direction | speed KPH | gust KPH | rain 1hr cm | rain 24hr cm | rain mn cm | humidity % | barometer mb |
| 20260510022538 | 24 | 0 | 0.0 | 0.0 | 0.00 | 0.08 | 0.08 | 70 | 1010.8 |
| 20260510022036 | 24 | 0 | 0.0 | 1.6 | 0.00 | 0.08 | 0.08 | 69 | 1010.7 |
| 20260510021547 | 24 | 0 | 0.0 | 3.2 | 0.00 | 0.08 | 0.08 | 69 | 1010.8 |
| 20260510021033 | 25 | 0 | 0.0 | 3.2 | 0.00 | 0.08 | 0.08 | 68 | 1010.7 |
| 20260510020536 | 25 | 0 | 0.0 | 3.2 | 0.00 | 0.08 | 0.08 | 67 | 1010.7 |
| 20260510020046 | 25 | 303 | 0.0 | 3.2 | 0.00 | 0.08 | 0.08 | 67 | 1010.6 |
| 20260510015539 | 25 | 296 | 0.0 | 3.2 | 0.00 | 0.08 | 0.08 | 66 | 1010.5 |
| 20260510015035 | 25 | 0 | 0.0 | 4.8 | 0.00 | 0.08 | 0.08 | 65 | 1010.6 |
| 20260510014545 | 25 | 0 | 0.0 | 6.4 | 0.00 | 0.08 | 0.08 | 64 | 1010.4 |
| 20260510014036 | 25 | 296 | 0.0 | 6.4 | 0.00 | 0.08 | 0.08 | 63 | 1010.2 |
| 20260510013534 | 25 | 0 | 1.6 | 6.4 | 0.00 | 0.08 | 0.08 | 63 | 1010.2 |
| 20260510013101 | 26 | 308 | 3.2 | 6.4 | 0.00 | 0.08 | 0.08 | 61 | 1010.1 |
| 20260510012540 | 26 | 316 | 3.2 | 6.4 | 0.00 | 0.08 | 0.08 | 60 | 1010.2 |
| 20260510012039 | 26 | 307 | 1.6 | 6.4 | 0.00 | 0.08 | 0.08 | 59 | 1010.1 |
| 20260510011546 | 26 | 298 | 3.2 | 9.7 | 0.00 | 0.08 | 0.08 | 57 | 1010.1 |
| 20260510011039 | 26 | 295 | 3.2 | 9.7 | 0.00 | 0.08 | 0.08 | 56 | 1010.1 |
| 20260510010536 | 26 | 303 | 3.2 | 8.0 | 0.00 | 0.08 | 0.08 | 54 | 1009.9 |
| 20260510010046 | 27 | 302 | 3.2 | 8.0 | 0.00 | 0.08 | 0.08 | 52 | 1009.8 |
| 20260510005537 | 27 | 279 | 3.2 | 9.7 | 0.00 | 0.08 | 0.08 | 51 | 1009.8 |
| 20260510005037 | 27 | 290 | 3.2 | 12.9 | 0.00 | 0.08 | 0.08 | 50 | 1009.7 |
| 20260510004555 | 27 | 293 | 4.8 | 12.9 | 0.00 | 0.08 | 0.08 | 49 | 1009.7 |
| 20260510004036 | 27 | 300 | 4.8 | 12.9 | 0.00 | 0.08 | 0.08 | 49 | 1009.6 |
| 20260510003536 | 27 | 267 | 4.8 | 12.9 | 0.00 | 0.08 | 0.08 | 48 | 1009.7 |
| 20260510003049 | 28 | 294 | 3.2 | 14.5 | 0.00 | 0.08 | 0.08 | 48 | 1009.7 |
| 20260510002540 | 28 | 310 | 4.8 | 14.5 | 0.00 | 0.08 | 0.08 | 48 | 1009.6 |
| 20260510002036 | 28 | 334 | 6.4 | 14.5 | 0.00 | 0.08 | 0.08 | 48 | 1009.5 |
| 20260510001553 | 28 | 311 | 4.8 | 12.9 | 0.00 | 0.08 | 0.08 | 54 | 1009.5 |
| 20260510001037 | 28 | 298 | 4.8 | 12.9 | 0.00 | 0.08 | 0.08 | 53 | 1009.4 |
| 20260510000537 | 28 | 302 | 4.8 | 16.1 | 0.00 | 0.08 | 0.08 | 53 | 1009.4 |
| 20260510000052 | 28 | 293 | 6.4 | 16.1 | 0.00 | 0.08 | 0.08 | 53 | 1009.3 |
| 20260509235538 | 29 | 319 | 4.8 | 14.5 | 0.00 | 0.08 | 0.08 | 54 | 1009.3 |
| 20260509235037 | 29 | 306 | 4.8 | 14.5 | 0.00 | 0.08 | 0.08 | 54 | 1009.3 |
| 20260509234548 | 29 | 286 | 8.0 | 12.9 | 0.00 | 0.08 | 0.08 | 53 | 1009.2 |
| 20260509234036 | 29 | 304 | 4.8 | 16.1 | 0.00 | 0.08 | 0.08 | 52 | 1009.1 |
| 20260509233537 | 29 | 284 | 4.8 | 16.1 | 0.00 | 0.08 | 0.08 | 52 | 1009.2 |
| 20260509233048 | 30 | 269 | 4.8 | 14.5 | 0.00 | 0.08 | 0.08 | 52 | 1009.1 |
| 20260509232537 | 30 | 306 | 4.8 | 14.5 | 0.00 | 0.08 | 0.08 | 52 | 1009.1 |
| 20260509232037 | 30 | 321 | 6.4 | 12.9 | 0.00 | 0.08 | 0.08 | 52 | 1009.1 |
| 20260509231557 | 30 | 345 | 3.2 | 12.9 | 0.00 | 0.08 | 0.08 | 54 | 1009.1 |
| 20260509231036 | 30 | 302 | 3.2 | 12.9 | 0.00 | 0.08 | 0.08 | 54 | 1009.1 |
| 20260509230537 | 30 | 283 | 4.8 | 12.9 | 0.00 | 0.08 | 0.08 | 54 | 1009.2 |
| 20260509230048 | 30 | 311 | 3.2 | 12.9 | 0.00 | 0.08 | 0.08 | 55 | 1009.1 |
| 20260509225538 | 30 | 300 | 8.0 | 14.5 | 0.00 | 0.08 | 0.08 | 55 | 1009.0 |
| 20260509225037 | 30 | 291 | 3.2 | 14.5 | 0.00 | 0.08 | 0.08 | 58 | 1009.0 |
| 20260509224547 | 30 | 306 | 4.8 | 14.5 | 0.00 | 0.08 | 0.08 | 54 | 1009.2 |
| 20260509224037 | 30 | 310 | 6.4 | 14.5 | 0.00 | 0.08 | 0.08 | 55 | 1009.2 |
| 20260509223537 | 30 | 268 | 3.2 | 12.9 | 0.00 | 0.08 | 0.08 | 57 | 1009.1 |
| 20260509223049 | 29 | 333 | 3.2 | 14.5 | 0.00 | 0.08 | 0.08 | 59 | 1009.1 |
| 20260509222538 | 29 | 296 | 4.8 | 14.5 | 0.00 | 0.08 | 0.08 | 57 | 1009.1 |
| 20260509222037 | 29 | 281 | 6.4 | 19.3 | 0.00 | 0.08 | 0.08 | 56 | 1009.2 |
| 20260509221549 | 29 | 288 | 8.0 | 19.3 | 0.00 | 0.08 | 0.08 | 56 | 1009.2 |
| 20260509221037 | 29 | 279 | 6.4 | 19.3 | 0.00 | 0.08 | 0.08 | 56 | 1009.0 |
| 20260509220537 | 28 | 287 | 3.2 | 11.3 | 0.00 | 0.08 | 0.08 | 57 | 1009.0 |
| 20260509220054 | 28 | 253 | 4.8 | 11.3 | 0.00 | 0.08 | 0.08 | 58 | 1009.1 |
| 20260509215537 | 29 | 261 | 4.8 | 16.1 | 0.00 | 0.08 | 0.08 | 56 | 1009.1 |
| 20260509215037 | 28 | 234 | 4.8 | 16.1 | 0.00 | 0.08 | 0.08 | 56 | 1009.2 |
| 20260509214546 | 28 | 271 | 4.8 | 16.1 | 0.00 | 0.08 | 0.08 | 55 | 1009.2 |
| 20260509214036 | 30 | 313 | 6.4 | 16.1 | 0.00 | 0.08 | 0.08 | 53 | 1009.3 |
| 20260509213536 | 31 | 299 | 8.0 | 16.1 | 0.00 | 0.08 | 0.08 | 52 | 1009.4 |
| 20260509213047 | 32 | 232 | 0.0 | 8.0 | 0.00 | 0.08 | 0.08 | 47 | 1009.4 |
| 20260509212537 | 32 | 0 | 0.0 | 12.9 | 0.00 | 0.08 | 0.08 | 46 | 1009.4 |
| 20260509212037 | 32 | 80 | 4.8 | 12.9 | 0.00 | 0.08 | 0.08 | 45 | 1009.4 |
| 20260509211548 | 32 | 79 | 3.2 | 14.5 | 0.00 | 0.08 | 0.08 | 46 | 1009.4 |
| 20260509211037 | 32 | 73 | 0.0 | 17.7 | 0.00 | 0.08 | 0.08 | 46 | 1009.4 |
| 20260509210537 | 32 | 78 | 6.4 | 17.7 | 0.00 | 0.08 | 0.08 | 46 | 1009.5 |
| 20260509210054 | 32 | 87 | 0.0 | 16.1 | 0.00 | 0.08 | 0.08 | 48 | 1009.6 |
| 20260509205536 | 32 | 88 | 3.2 | 16.1 | 0.00 | 0.08 | 0.08 | 47 | 1009.6 |
| 20260509205040 | 32 | 130 | 4.8 | 16.1 | 0.00 | 0.08 | 0.08 | 48 | 1009.7 |
| 20260509204554 | 32 | 82 | 1.6 | 14.5 | 0.00 | 0.08 | 0.08 | 51 | 1009.7 |
| 20260509204037 | 32 | 84 | 6.4 | 14.5 | 0.00 | 0.08 | 0.08 | 49 | 1009.8 |
| 20260509203536 | 32 | 0 | 3.2 | 16.1 | 0.00 | 0.08 | 0.08 | 50 | 1009.7 |
| 20260509203045 | 32 | 23 | 3.2 | 16.1 | 0.00 | 0.08 | 0.08 | 51 | 1009.9 |
| 20260509202537 | 31 | 61 | 1.6 | 16.1 | 0.00 | 0.08 | 0.08 | 54 | 1009.9 |
| 20260509202039 | 31 | 96 | 8.0 | 16.1 | 0.00 | 0.08 | 0.08 | 51 | 1010.1 |
| 20260509201546 | 31 | 304 | 3.2 | 14.5 | 0.00 | 0.08 | 0.08 | 54 | 1010.0 |
| 20260509201036 | 31 | 0 | 8.0 | 14.5 | 0.00 | 0.08 | 0.08 | 53 | 1010.1 |
| 20260509200536 | 31 | 290 | 3.2 | 14.5 | 0.00 | 0.08 | 0.08 | 53 | 1010.2 |
| 20260509200049 | 31 | 134 | 6.4 | 16.1 | 0.00 | 0.08 | 0.08 | 54 | 1010.2 |
| 20260509195540 | 31 | 88 | 8.0 | 16.1 | 0.00 | 0.08 | 0.08 | 55 | 1010.2 |
| 20260509195038 | 31 | 136 | 6.4 | 19.3 | 0.00 | 0.08 | 0.08 | 54 | 1010.2 |
| 20260509194545 | 31 | 72 | 9.7 | 19.3 | 0.00 | 0.08 | 0.08 | 55 | 1010.2 |
| 20260509194037 | 31 | 42 | 1.6 | 14.5 | 0.00 | 0.08 | 0.08 | 56 | 1010.3 |
| 20260509193537 | 31 | 117 | 3.2 | 20.9 | 0.00 | 0.08 | 0.08 | 55 | 1010.4 |
| 20260509193050 | 31 | 44 | 9.7 | 20.9 | 0.00 | 0.08 | 0.08 | 54 | 1010.6 |
| 20260509192537 | 30 | 59 | 9.7 | 22.5 | 0.00 | 0.08 | 0.08 | 54 | 1010.7 |
| 20260509192042 | 30 | 82 | 6.4 | 22.5 | 0.00 | 0.08 | 0.08 | 57 | 1010.6 |
| 20260509191546 | 30 | 17 | 6.4 | 22.5 | 0.00 | 0.08 | 0.08 | 56 | 1010.7 |
| 20260509191036 | 30 | 34 | 9.7 | 17.7 | 0.00 | 0.08 | 0.08 | 56 | 1010.7 |
| 20260509190536 | 30 | 84 | 4.8 | 17.7 | 0.00 | 0.08 | 0.08 | 61 | 1011.0 |
| 20260509190054 | 30 | 81 | 8.0 | 17.7 | 0.00 | 0.08 | 0.08 | 57 | 1011.1 |
| 20260509185537 | 30 | 82 | 4.8 | 12.9 | 0.00 | 0.08 | 0.08 | 61 | 1011.2 |
| 20260509185036 | 30 | 70 | 3.2 | 16.1 | 0.00 | 0.08 | 0.08 | 61 | 1011.2 |
| 20260509184618 | 30 | 67 | 4.8 | 16.1 | 0.00 | 0.08 | 0.08 | 64 | 1011.4 |
| 20260509184038 | 30 | 80 | 6.4 | 16.1 | 0.00 | 0.08 | 0.08 | 61 | 1011.5 |
| 20260509183537 | 30 | 87 | 4.8 | 14.5 | 0.00 | 0.08 | 0.08 | 62 | 1011.4 |
| 20260509183053 | 30 | 76 | 3.2 | 9.7 | 0.00 | 0.08 | 0.08 | 63 | 1011.6 |
| 20260509182536 | 30 | 102 | 3.2 | 12.9 | 0.00 | 0.08 | 0.08 | 66 | 1011.8 |
| 20260509182036 | 30 | 30 | 3.2 | 14.5 | 0.00 | 0.08 | 0.08 | 63 | 1011.7 |
| 20260509181549 | 29 | 31 | 4.8 | 14.5 | 0.00 | 0.08 | 0.08 | 66 | 1011.7 |
| 20260509181035 | 29 | 61 | 6.4 | 14.5 | 0.00 | 0.08 | 0.08 | 66 | 1011.7 |
| 20260509180538 | 29 | 148 | 3.2 | 9.7 | 0.00 | 0.08 | 0.08 | 68 | 1011.9 |
| 20260509180044 | 29 | 127 | 4.8 | 9.7 | 0.00 | 0.08 | 0.08 | 67 | 1011.9 |
| 20260509175541 | 29 | 0 | 0.0 | 6.4 | 0.00 | 0.08 | 0.08 | 66 | 1011.9 |
| 20260509175036 | 29 | 0 | 3.2 | 8.0 | 0.00 | 0.08 | 0.08 | 68 | 1012.0 |
| 20260509174547 | 28 | 0 | 1.6 | 8.0 | 0.00 | 0.08 | 0.08 | 69 | 1011.9 |
| 20260509174035 | 28 | 67 | 3.2 | 12.9 | 0.00 | 0.08 | 0.08 | 69 | 1011.9 |
| 20260509173536 | 28 | 0 | 0.0 | 17.7 | 0.00 | 0.08 | 0.08 | 70 | 1012.1 |
| 20260509173047 | 28 | 122 | 4.8 | 17.7 | 0.00 | 0.08 | 0.08 | 70 | 1012.2 |
| 20260509172536 | 28 | 57 | 6.4 | 14.5 | 0.00 | 0.08 | 0.08 | 70 | 1012.2 |
| 20260509172038 | 28 | 39 | 4.8 | 11.3 | 0.00 | 0.08 | 0.08 | 71 | 1012.1 |
| 20260509171548 | 28 | 38 | 1.6 | 14.5 | 0.00 | 0.08 | 0.08 | 73 | 1012.2 |
| 20260509171037 | 27 | 67 | 3.2 | 16.1 | 0.00 | 0.08 | 0.08 | 72 | 1012.3 |
| 20260509170535 | 27 | 54 | 4.8 | 16.1 | 0.00 | 0.08 | 0.08 | 74 | 1012.3 |
| 20260509170048 | 27 | 330 | 1.6 | 14.5 | 0.00 | 0.08 | 0.08 | 74 | 1012.3 |
| 20260509165536 | 27 | 38 | 4.8 | 16.1 | 0.00 | 0.08 | 0.08 | 75 | 1012.3 |
| 20260509165035 | 27 | 57 | 6.4 | 16.1 | 0.00 | 0.08 | 0.08 | 77 | 1012.3 |
| 20260509164544 | 27 | 36 | 6.4 | 12.9 | 0.00 | 0.08 | 0.08 | 75 | 1012.3 |
| 20260509164040 | 27 | 54 | 6.4 | 12.9 | 0.00 | 0.08 | 0.08 | 75 | 1012.3 |
| 20260509163537 | 26 | 338 | 3.2 | 17.7 | 0.00 | 0.08 | 0.08 | 78 | 1012.3 |
| 20260509163058 | 26 | 61 | 1.6 | 17.7 | 0.00 | 0.08 | 0.08 | 78 | 1012.2 |
| 20260509162540 | 26 | 61 | 3.2 | 14.5 | 0.00 | 0.08 | 0.08 | 78 | 1012.3 |
| 20260509162040 | 26 | 62 | 6.4 | 12.9 | 0.00 | 0.08 | 0.08 | 77 | 1012.3 |
| 20260509161548 | 26 | 50 | 4.8 | 14.5 | 0.00 | 0.08 | 0.08 | 77 | 1012.2 |
| 20260509161035 | 26 | 40 | 1.6 | 14.5 | 0.00 | 0.08 | 0.08 | 81 | 1012.2 |
| 20260509160535 | 26 | 22 | 3.2 | 14.5 | 0.00 | 0.08 | 0.08 | 81 | 1012.3 |
| 20260509160050 | 25 | 0 | 3.2 | 11.3 | 0.00 | 0.08 | 0.08 | 80 | 1012.2 |
| 20260509155538 | 25 | 349 | 0.0 | 8.0 | 0.00 | 0.08 | 0.08 | 84 | 1012.3 |
| 20260509155035 | 25 | 328 | 1.6 | 8.0 | 0.00 | 0.08 | 0.08 | 84 | 1012.3 |
| 20260509154549 | 24 | 0 | 1.6 | 8.0 | 0.00 | 0.08 | 0.08 | 87 | 1012.4 |
| 20260509154036 | 23 | 0 | 0.0 | 9.7 | 0.00 | 0.08 | 0.08 | 90 | 1012.6 |
| 20260509153535 | 23 | 32 | 0.0 | 14.5 | 0.00 | 0.08 | 0.08 | 90 | 1012.7 |
| 20260509153045 | 22 | 0 | 1.6 | 14.5 | 0.00 | 0.08 | 0.08 | 89 | 1012.6 |
| 20260509152535 | 22 | 348 | 3.2 | 14.5 | 0.00 | 0.08 | 0.08 | 91 | 1012.7 |
| 20260509152035 | 22 | 306 | 1.6 | 11.3 | 0.00 | 0.08 | 0.08 | 91 | 1012.7 |
| 20260509151547 | 22 | 318 | 1.6 | 8.0 | 0.00 | 0.08 | 0.08 | 91 | 1012.4 |
| 20260509151038 | 22 | 329 | 0.0 | 6.4 | 0.00 | 0.08 | 0.08 | 92 | 1012.5 |
| 20260509150535 | 22 | 295 | 0.0 | 6.4 | 0.00 | 0.08 | 0.08 | 92 | 1012.5 |
| 20260509150045 | 22 | 0 | 1.6 | 8.0 | 0.00 | 0.08 | 0.08 | 92 | 1012.5 |
| 20260509145535 | 22 | 344 | 1.6 | 9.7 | 0.00 | 0.08 | 0.08 | 92 | 1012.2 |
| 20260509145034 | 22 | 330 | 3.2 | 9.7 | 0.00 | 0.08 | 0.08 | 92 | 1011.9 |
| 20260509144550 | 22 | 0 | 0.0 | 6.4 | 0.00 | 0.08 | 0.08 | 93 | 1011.8 |
| 20260509144039 | 22 | 0 | 0.0 | 12.9 | 0.00 | 0.08 | 0.08 | 93 | 1012.0 |
| 20260509143535 | 22 | 0 | 3.2 | 12.9 | 0.00 | 0.08 | 0.08 | 93 | 1011.9 |
| 20260509143055 | 22 | 0 | 1.6 | 6.4 | 0.00 | 0.08 | 0.08 | 93 | 1011.5 |
| 20260509142535 | 21 | 332 | 1.6 | 14.5 | 0.00 | 0.08 | 0.08 | 93 | 1011.8 |
| 20260509142036 | 21 | 0 | 1.6 | 14.5 | 0.00 | 0.08 | 0.08 | 93 | 1011.7 |
| 20260509141559 | 22 | 246 | 3.2 | 9.7 | 0.00 | 0.08 | 0.08 | 93 | 1011.4 |
| 20260509141038 | 22 | 319 | 0.0 | 8.0 | 0.00 | 0.08 | 0.08 | 93 | 1011.6 |
| 20260509140535 | 22 | 327 | 3.2 | 8.0 | 0.00 | 0.08 | 0.08 | 93 | 1011.5 |
| 20260509140057 | 21 | 0 | 1.6 | 8.0 | 0.00 | 0.08 | 0.08 | 93 | 1011.3 |
| 20260509135534 | 21 | 326 | 0.0 | 3.2 | 0.00 | 0.08 | 0.08 | 93 | 1011.3 |
| 20260509135036 | 21 | 0 | 0.0 | 4.8 | 0.00 | 0.08 | 0.08 | 93 | 1011.6 |
| 20260509134544 | 21 | 0 | 0.0 | 4.8 | 0.00 | 0.08 | 0.08 | 93 | 1011.7 |
| 20260509134034 | 21 | 187 | 1.6 | 4.8 | 0.00 | 0.08 | 0.08 | 93 | 1012.0 |
| 20260509133534 | 21 | 0 | 0.0 | 3.2 | 0.00 | 0.08 | 0.08 | 93 | 1012.1 |
| 20260509133045 | 21 | 0 | 0.0 | 8.0 | 0.00 | 0.08 | 0.08 | 93 | 1012.1 |
| 20260509132535 | 21 | 124 | 1.6 | 8.0 | 0.00 | 0.08 | 0.08 | 93 | 1012.1 |
| 20260509132034 | 21 | 174 | 1.6 | 9.7 | 0.00 | 0.08 | 0.08 | 93 | 1012.1 |
| 20260509131544 | 21 | 171 | 0.0 | 9.7 | 0.00 | 0.08 | 0.08 | 93 | 1011.9 |
| 20260509131034 | 21 | 171 | 1.6 | 8.0 | 0.00 | 0.08 | 0.08 | 93 | 1012.0 |
| 20260509130541 | 21 | 144 | 0.0 | 8.0 | 0.00 | 0.08 | 0.08 | 93 | 1011.9 |
| 20260509130054 | 21 | 0 | 3.2 | 9.7 | 0.00 | 0.08 | 0.08 | 93 | 1011.8 |
| 20260509125534 | 21 | 0 | 3.2 | 9.7 | 0.00 | 0.08 | 0.08 | 93 | 1011.7 |
| 20260509125034 | 21 | 167 | 3.2 | 8.0 | 0.00 | 0.08 | 0.08 | 93 | 1011.7 |
| 20260509124541 | 21 | 152 | 0.0 | 3.2 | 0.00 | 0.08 | 0.08 | 93 | 1011.6 |
| 20260509124036 | 21 | 0 | 0.0 | 6.4 | 0.00 | 0.08 | 0.08 | 93 | 1011.4 |
| 20260509123535 | 21 | 0 | 0.0 | 6.4 | 0.00 | 0.08 | 0.08 | 93 | 1011.5 |
| 20260509123054 | 21 | 224 | 1.6 | 4.8 | 0.00 | 0.08 | 0.08 | 93 | 1011.5 |
| 20260509122535 | 21 | 0 | 0.0 | 4.8 | 0.00 | 0.08 | 0.08 | 93 | 1011.6 |
| 20260509122036 | 21 | 167 | 0.0 | 1.6 | 0.00 | 0.08 | 0.08 | 93 | 1011.6 |
| 20260509121547 | 21 | 0 | 0.0 | 1.6 | 0.00 | 0.08 | 0.08 | 93 | 1011.7 |
| 20260509121037 | 21 | 0 | 0.0 | 3.2 | 0.00 | 0.08 | 0.08 | 93 | 1011.6 |
| 20260509120537 | 21 | 0 | 0.0 | 3.2 | 0.00 | 0.08 | 0.08 | 93 | 1011.6 |
| 20260509120041 | 21 | 0 | 0.0 | 4.8 | 0.00 | 0.08 | 0.08 | 92 | 1011.7 |
| 20260509115536 | 21 | 0 | 0.0 | 4.8 | 0.00 | 0.08 | 0.08 | 92 | 1011.7 |
| 20260509115037 | 21 | 114 | 3.2 | 6.4 | 0.00 | 0.08 | 0.08 | 92 | 1011.8 |
| 20260509114553 | 21 | 158 | 0.0 | 6.4 | 0.00 | 0.08 | 0.08 | 92 | 1012.0 |
| 20260509114037 | 21 | 178 | 1.6 | 8.0 | 0.00 | 0.08 | 0.08 | 92 | 1012.3 |
| 20260509113537 | 21 | 195 | 1.6 | 8.0 | 0.03 | 0.08 | 0.08 | 92 | 1012.2 |
| 20260509113106 | 21 | 205 | 1.6 | 6.4 | 0.03 | 0.08 | 0.08 | 92 | 1012.3 |
| 20260509112536 | 21 | 210 | 1.6 | 6.4 | 0.03 | 0.08 | 0.08 | 92 | 1012.4 |
| 20260509112037 | 21 | 232 | 0.0 | 6.4 | 0.03 | 0.08 | 0.08 | 92 | 1012.4 |
| 20260509111551 | 21 | 187 | 1.6 | 8.0 | 0.03 | 0.08 | 0.08 | 92 | 1012.5 |
| 20260509111034 | 21 | 220 | 3.2 | 8.0 | 0.03 | 0.08 | 0.08 | 92 | 1012.5 |
| 20260509110534 | 21 | 0 | 0.0 | 8.0 | 0.03 | 0.08 | 0.08 | 92 | 1012.4 |
| 20260509110046 | 21 | 204 | 0.0 | 9.7 | 0.03 | 0.08 | 0.08 | 92 | 1012.4 |
| 20260509105538 | 21 | 0 | 3.2 | 11.3 | 0.03 | 0.08 | 0.08 | 92 | 1012.4 |
| 20260509105038 | 21 | 0 | 1.6 | 12.9 | 0.03 | 0.08 | 0.08 | 92 | 1012.5 |
| 20260509104544 | 21 | 171 | 4.8 | 12.9 | 0.03 | 0.08 | 0.08 | 92 | 1012.7 |
| 20260509104037 | 21 | 174 | 3.2 | 8.0 | 0.03 | 0.08 | 0.08 | 92 | 1012.6 |
| 20260509103537 | 21 | 172 | 3.2 | 8.0 | 0.00 | 0.05 | 0.05 | 92 | 1012.4 |
| 20260509103056 | 21 | 209 | 0.0 | 4.8 | 0.00 | 0.05 | 0.05 | 92 | 1012.4 |
| 20260509102537 | 21 | 0 | 1.6 | 4.8 | 0.00 | 0.05 | 0.05 | 92 | 1012.2 |
| 20260509102037 | 21 | 203 | 0.0 | 3.2 | 0.00 | 0.05 | 0.05 | 92 | 1012.0 |
| 20260509101546 | 21 | 171 | 0.0 | 3.2 | 0.00 | 0.05 | 0.05 | 92 | 1011.7 |
| 20260509101036 | 21 | 0 | 0.0 | 3.2 | 0.03 | 0.05 | 0.05 | 92 | 1011.5 |
| 20260509100536 | 21 | 0 | 0.0 | 1.6 | 0.03 | 0.05 | 0.05 | 92 | 1011.5 |
| 20260509100105 | 21 | 0 | 0.0 | 1.6 | 0.03 | 0.05 | 0.05 | 92 | 1011.4 |
| 20260509095534 | 21 | 0 | 0.0 | 1.6 | 0.05 | 0.05 | 0.05 | 92 | 1011.5 |
| 20260509095110 | 21 | 0 | 0.0 | 1.6 | 0.05 | 0.05 | 0.05 | 92 | 1011.4 |
| 20260509094552 | 21 | 0 | 0.0 | 0.0 | 0.05 | 0.05 | 0.05 | 92 | 1011.2 |
| 20260509094034 | 21 | 0 | 0.0 | 0.0 | 0.05 | 0.05 | 0.05 | 92 | 1011.2 |
| 20260509093537 | 21 | 0 | 0.0 | 0.0 | 0.05 | 0.05 | 0.05 | 92 | 1011.1 |
| 20260509093046 | 21 | 0 | 0.0 | 0.0 | 0.05 | 0.05 | 0.05 | 92 | 1011.2 |
| 20260509092539 | 21 | 0 | 0.0 | 0.0 | 0.05 | 0.05 | 0.05 | 92 | 1011.1 |
| 20260509092037 | 21 | 0 | 0.0 | 4.8 | 0.05 | 0.05 | 0.05 | 92 | 1011.1 |
| 20260509091551 | 21 | 0 | 0.0 | 4.8 | 0.05 | 0.05 | 0.05 | 91 | 1011.1 |
| 20260509091038 | 21 | 163 | 0.0 | 6.4 | 0.03 | 0.03 | 0.03 | 92 | 1011.0 |
| 20260509090537 | 21 | 130 | 1.6 | 6.4 | 0.03 | 0.03 | 0.03 | 92 | 1011.1 |
| 20260509090041 | 21 | 0 | 0.0 | 3.2 | 0.03 | 0.03 | 0.03 | 92 | 1011.1 |
| 20260509085537 | 21 | 0 | 0.0 | 3.2 | 0.00 | 0.00 | 0.00 | 92 | 1011.1 |
| 20260509085039 | 21 | 0 | 0.0 | 4.8 | 0.00 | 0.00 | 0.00 | 91 | 1011.2 |
| 20260509084548 | 21 | 0 | 0.0 | 4.8 | 0.00 | 0.00 | 0.00 | 91 | 1011.2 |
| 20260509084038 | 21 | 0 | 0.0 | 4.8 | 0.00 | 0.00 | 0.00 | 91 | 1011.1 |
| 20260509083535 | 21 | 0 | 1.6 | 4.8 | 0.00 | 0.00 | 0.00 | 91 | 1011.2 |
| 20260509083048 | 21 | 203 | 0.0 | 1.6 | 0.00 | 0.00 | 0.00 | 91 | 1011.3 |
| 20260509082534 | 21 | 0 | 0.0 | 1.6 | 0.00 | 0.00 | 0.00 | 91 | 1011.4 |
| 20260509082037 | 21 | 0 | 0.0 | 1.6 | 0.00 | 0.00 | 0.00 | 91 | 1011.4 |
| 20260509081557 | 21 | 0 | 0.0 | 1.6 | 0.00 | 0.00 | 0.00 | 91 | 1011.4 |
| 20260509081036 | 21 | 0 | 0.0 | 1.6 | 0.00 | 0.00 | 0.00 | 91 | 1011.3 |
| 20260509080534 | 21 | 0 | 0.0 | 3.2 | 0.00 | 0.00 | 0.00 | 91 | 1011.3 |
| 20260509080058 | 21 | 176 | 0.0 | 3.2 | 0.00 | 0.00 | 0.00 | 91 | 1011.4 |
| 20260509075540 | 21 | 0 | 0.0 | 0.0 | 0.00 | 0.00 | 0.00 | 91 | 1011.4 |
| 20260509075037 | 21 | 0 | 0.0 | 0.0 | 0.00 | 0.00 | 0.00 | 91 | 1011.2 |
| 20260509074551 | 21 | 0 | 0.0 | 0.0 | 0.00 | 0.00 | 0.00 | 91 | 1011.2 |
| 20260509074037 | 21 | 0 | 0.0 | 3.2 | 0.00 | 0.00 | 0.00 | 91 | 1011.1 |
| 20260509073535 | 21 | 0 | 0.0 | 3.2 | 0.00 | 0.00 | 0.00 | 91 | 1011.3 |
| 20260509073048 | 21 | 0 | 0.0 | 4.8 | 0.00 | 0.00 | 0.00 | 91 | 1011.1 |
| 20260509072535 | 21 | 265 | 0.0 | 4.8 | 0.00 | 0.00 | 0.00 | 90 | 1011.1 |
| 20260509072034 | 21 | 288 | 0.0 | 4.8 | 0.00 | 0.00 | 0.00 | 91 | 1010.9 |
| 20260509071548 | 21 | 306 | 1.6 | 6.4 | 0.00 | 0.00 | 0.00 | 91 | 1010.9 |
| 20260509071037 | 21 | 0 | 0.0 | 6.4 | 0.00 | 0.00 | 0.00 | 91 | 1011.1 |
| 20260509070541 | 21 | 0 | 0.0 | 4.8 | 0.00 | 0.00 | 0.00 | 91 | 1011.2 |
| 20260509070047 | 21 | 328 | 0.0 | 4.8 | 0.00 | 0.00 | 0.00 | 90 | 1011.2 |
| 20260509065535 | 21 | 329 | 0.0 | 9.7 | 0.00 | 0.00 | 0.00 | 90 | 1011.3 |
| 20260509065037 | 21 | 0 | 0.0 | 9.7 | 0.00 | 0.00 | 0.00 | 90 | 1011.4 |
| 20260509064544 | 21 | 0 | 1.6 | 9.7 | 0.00 | 0.00 | 0.00 | 90 | 1011.4 |
| 20260509064035 | 21 | 0 | 0.0 | 8.0 | 0.00 | 0.00 | 0.00 | 90 | 1011.2 |
| 20260509063537 | 21 | 0 | 0.0 | 6.4 | 0.00 | 0.00 | 0.00 | 90 | 1011.3 |
| 20260509063045 | 21 | 325 | 1.6 | 6.4 | 0.00 | 0.00 | 0.00 | 90 | 1011.2 |
| 20260509062537 | 21 | 325 | 0.0 | 6.4 | 0.00 | 0.00 | 0.00 | 90 | 1010.7 |
| 20260509062038 | 21 | 304 | 0.0 | 9.7 | 0.00 | 0.00 | 0.00 | 90 | 1010.9 |
| 20260509061556 | 21 | 321 | 1.6 | 9.7 | 0.00 | 0.00 | 0.00 | 90 | 1010.7 |
| 20260509061038 | 21 | 321 | 3.2 | 9.7 | 0.00 | 0.00 | 0.00 | 90 | 1010.9 |
| 20260509060537 | 21 | 0 | 1.6 | 8.0 | 0.00 | 0.00 | 0.00 | 90 | 1011.1 |
| 20260509060048 | 21 | 0 | 3.2 | 8.0 | 0.00 | 0.00 | 0.00 | 90 | 1011.0 |
| 20260509055540 | 21 | 0 | 1.6 | 9.7 | 0.00 | 0.00 | 0.00 | 90 | 1010.8 |
| 20260509055035 | 21 | 0 | 1.6 | 9.7 | 0.00 | 0.00 | 0.00 | 90 | 1011.0 |
| 20260509054556 | 21 | 321 | 1.6 | 9.7 | 0.00 | 0.00 | 0.00 | 90 | 1011.2 |
| 20260509054036 | 21 | 311 | 0.0 | 9.7 | 0.00 | 0.00 | 0.00 | 90 | 1011.2 |
| 20260509053535 | 21 | 317 | 1.6 | 9.7 | 0.00 | 0.00 | 0.00 | 90 | 1011.2 |
| 20260509053059 | 21 | 301 | 1.6 | 6.4 | 0.00 | 0.00 | 0.00 | 90 | 1011.2 |
| 20260509052537 | 21 | 309 | 0.0 | 16.1 | 0.00 | 0.00 | 0.00 | 90 | 1011.2 |
| 20260509052037 | 21 | 55 | 1.6 | 16.1 | 0.00 | 0.00 | 0.00 | 90 | 1011.1 |
| 20260509051549 | 21 | 352 | 1.6 | 8.0 | 0.00 | 0.00 | 0.00 | 90 | 1011.0 |
| 20260509051034 | 21 | 0 | 0.0 | 6.4 | 0.00 | 0.00 | 0.00 | 90 | 1011.0 |
| 20260509050537 | 21 | 0 | 1.6 | 11.3 | 0.00 | 0.00 | 0.00 | 90 | 1011.1 |
| 20260509050049 | 20 | 0 | 1.6 | 12.9 | 0.00 | 0.00 | 0.00 | 90 | 1010.8 |
| 20260509045537 | 20 | 321 | 3.2 | 12.9 | 0.00 | 0.00 | 0.00 | 90 | 1010.7 |
| 20260509045037 | 20 | 0 | 3.2 | 8.0 | 0.00 | 0.00 | 0.00 | 90 | 1010.7 |
| 20260509044555 | 20 | 307 | 1.6 | 8.0 | 0.00 | 0.00 | 0.00 | 89 | 1010.6 |
| 20260509044036 | 20 | 315 | 0.0 | 6.4 | 0.00 | 0.00 | 0.00 | 89 | 1010.4 |
| 20260509043536 | 21 | 304 | 0.0 | 6.4 | 0.00 | 0.00 | 0.00 | 88 | 1010.4 |
| 20260509043046 | 21 | 308 | 1.6 | 6.4 | 0.00 | 0.00 | 0.00 | 88 | 1010.4 |
| 20260509042537 | 21 | 300 | 0.0 | 6.4 | 0.00 | 0.00 | 0.00 | 88 | 1010.6 |
| 20260509042039 | 21 | 305 | 0.0 | 6.4 | 0.00 | 0.00 | 0.00 | 88 | 1010.6 |
| 20260509041546 | 21 | 0 | 0.0 | 6.4 | 0.00 | 0.00 | 0.00 | 88 | 1010.7 |
| 20260509041037 | 21 | 317 | 1.6 | 6.4 | 0.00 | 0.00 | 0.00 | 88 | 1010.7 |
| 20260509040536 | 21 | 314 | 1.6 | 4.8 | 0.00 | 0.00 | 0.00 | 88 | 1010.9 |
| 20260509040049 | 21 | 304 | 1.6 | 4.8 | 0.00 | 0.00 | 0.00 | 88 | 1011.0 |
| 20260509035537 | 21 | 0 | 0.0 | 0.0 | 0.00 | 0.00 | 0.00 | 88 | 1011.1 |
| 20260509035035 | 21 | 0 | 0.0 | 0.0 | 0.00 | 0.00 | 0.00 | 88 | 1011.2 |
| 20260509034550 | 21 | 0 | 0.0 | 0.0 | 0.00 | 0.00 | 0.00 | 88 | 1011.2 |
| 20260509034034 | 21 | 0 | 0.0 | 0.0 | 0.00 | 0.00 | 0.00 | 88 | 1011.2 |
| 20260509033538 | 21 | 0 | 0.0 | 0.0 | 0.00 | 0.00 | 0.00 | 88 | 1011.1 |
| 20260509033044 | 21 | 0 | 0.0 | 1.6 | 0.00 | 0.00 | 0.00 | 88 | 1011.1 |
| 20260509032537 | 21 | 0 | 0.0 | 1.6 | 0.00 | 0.00 | 0.00 | 88 | 1011.1 |
| 20260509032036 | 21 | 0 | 0.0 | 1.6 | 0.00 | 0.00 | 0.00 | 87 | 1011.0 |
| 20260509031552 | 21 | 0 | 0.0 | 3.2 | 0.00 | 0.00 | 0.00 | 87 | 1010.9 |
| 20260509031037 | 21 | 0 | 0.0 | 3.2 | 0.00 | 0.00 | 0.00 | 87 | 1010.8 |
| 20260509030537 | 21 | 0 | 0.0 | 1.6 | 0.00 | 0.00 | 0.00 | 87 | 1010.8 |
| 20260509030049 | 21 | 0 | 0.0 | 1.6 | 0.00 | 0.00 | 0.00 | 87 | 1010.8 |
| 20260509025536 | 21 | 0 | 0.0 | 3.2 | 0.00 | 0.00 | 0.00 | 87 | 1010.7 |
| 20260509025034 | 21 | 0 | 0.0 | 4.8 | 0.00 | 0.00 | 0.00 | 87 | 1010.7 |
| 20260509024545 | 21 | 0 | 0.0 | 4.8 | 0.00 | 0.00 | 0.00 | 87 | 1010.6 |
| 20260509024035 | 21 | 317 | 1.6 | 4.8 | 0.00 | 0.00 | 0.00 | 87 | 1010.6 |
| 20260509023534 | 21 | 306 | 1.6 | 4.8 | 0.00 | 0.00 | 0.00 | 87 | 1010.6 |
| 20260509023045 | 21 | 307 | 0.0 | 4.8 | 0.00 | 0.00 | 0.00 | 86 | 1010.6 |